• în România
  • Lista ţărilor
  • Pe 7 zile
  • Temperatura apei
  • Hartă satelitară
  • Meteo pe hartă
  • Widget-uri
  • user-avatar
    Intrare

    Meteo pe oră la Karamyshevo

    Astăzi, 13 Noiembrie, Marţi

    Timp Temperatura Precipitaţii Vânt Presiune Umiditate
    00:00 -7°C° 0 mm 5 m/s 761 mmHg 50%
    01:00 -7°C° 0 mm 5 m/s 761 mmHg 51%
    02:00 -8°C° 0 mm 6 m/s 760 mmHg 51%
    03:00 -8°C° 0 mm 6 m/s 760 mmHg 51%
    04:00 -6°C° 0 mm 6 m/s 760 mmHg 51%
    05:00 -6°C° 0 mm 6 m/s 759 mmHg 51%
    06:00 -6°C° 0 mm 6 m/s 759 mmHg 51%
    07:00 -6°C° 0 mm 6 m/s 758 mmHg 51%
    08:00 -7°C° 0 mm 7 m/s 758 mmHg 50%
    09:00 -6°C° 0 mm 7 m/s 757 mmHg 50%
    10:00 -6°C° 0 mm 7 m/s 757 mmHg 51%
    11:00 -6°C° 0 mm 7 m/s 756 mmHg 52%
    12:00 -4°C° 0.1 mm 7 m/s 756 mmHg 52%
    13:00 -4°C° 0.1 mm 7 m/s 755 mmHg 52%
    14:00 -4°C° 0 mm 7 m/s 754 mmHg 59%
    15:00 -4°C° 0.1 mm 7 m/s 754 mmHg 56%
    16:00 -3°C° 0.1 mm 7 m/s 754 mmHg 53%
    17:00 -3°C° 0.1 mm 7 m/s 753 mmHg 50%
    18:00 -3°C° 0 mm 7 m/s 753 mmHg 52%
    19:00 -3°C° 0 mm 7 m/s 753 mmHg 54%
    20:00 -3°C° 0 mm 7 m/s 752 mmHg 56%
    21:00 -4°C° 0.3 mm 7 m/s 752 mmHg 63%
    22:00 -4°C° 0.3 mm 6 m/s 752 mmHg 70%
    23:00 -4°C° 0.3 mm 6 m/s 752 mmHg 78%

    Mâine, 14 Noiembrie, Miercuri

    Timp Temperatura Precipitaţii Vânt Presiune Umiditate
    00:00 -4°C° 0.5 mm 6 m/s 751 mmHg 75%
    01:00 -4°C° 0.5 mm 6 m/s 751 mmHg 73%
    02:00 -4°C° 0.5 mm 5 m/s 751 mmHg 71%
    03:00 -4°C° 0.2 mm 5 m/s 750 mmHg 71%
    04:00 -4°C° 0.2 mm 5 m/s 750 mmHg 71%
    05:00 -4°C° 0.2 mm 5 m/s 750 mmHg 71%
    06:00 -4°C° 0.5 mm 5 m/s 750 mmHg 76%
    07:00 -5°C° 0.5 mm 5 m/s 750 mmHg 81%
    08:00 -4°C° 0.5 mm 4 m/s 750 mmHg 86%
    09:00 -4°C° 0.5 mm 4 m/s 750 mmHg 87%
    10:00 -4°C° 0.5 mm 4 m/s 750 mmHg 88%
    11:00 -4°C° 0.5 mm 4 m/s 750 mmHg 89%
    12:00 -4°C° 0.6 mm 4 m/s 750 mmHg 89%
    13:00 -4°C° 0.6 mm 3 m/s 751 mmHg 89%
    14:00 -4°C° 0.6 mm 3 m/s 751 mmHg 89%
    15:00 -4°C° 0.3 mm 3 m/s 751 mmHg 89%
    16:00 -4°C° 0.3 mm 3 m/s 751 mmHg 90%
    17:00 -4°C° 0.3 mm 3 m/s 752 mmHg 90%
    18:00 -3°C° 0.2 mm 2 m/s 752 mmHg 90%
    19:00 -3°C° 0.2 mm 2 m/s 752 mmHg 90%
    20:00 -3°C° 0.2 mm 2 m/s 753 mmHg 90%
    21:00 -3°C° 0.1 mm 2 m/s 753 mmHg 90%
    22:00 -3°C° 0.1 mm 2 m/s 753 mmHg 90%
    23:00 -3°C° 0.1 mm 2 m/s 754 mmHg 90%

    Poimâine, 15 Noiembrie, Joi

    Timp Temperatura Precipitaţii Vânt Presiune Umiditate
    00:00 -3°C° 0.2 mm 2 m/s 754 mmHg 90%
    01:00 -3°C° 0.2 mm 2 m/s 755 mmHg 89%
    02:00 -3°C° 0.2 mm 2 m/s 755 mmHg 89%
    03:00 -2°C° 0.1 mm 1 m/s 755 mmHg 89%
    04:00 -2°C° 0.1 mm 1 m/s 756 mmHg 89%
    05:00 -2°C° 0.1 mm 1 m/s 756 mmHg 89%
    06:00 -2°C° 0.1 mm 1 m/s 756 mmHg 89%
    07:00 -2°C° 0.1 mm 1 m/s 757 mmHg 89%
    08:00 -2°C° 0.1 mm 1 m/s 757 mmHg 88%
    09:00 -2°C° 0 mm 1 m/s 758 mmHg 87%
    10:00 -1°C° 0 mm 1 m/s 758 mmHg 85%
    11:00 0°C° 0 mm 1 m/s 758 mmHg 84%
    12:00 0°C° 0 mm 1 m/s 759 mmHg 85%
    13:00 0°C° 0 mm 1 m/s 759 mmHg 87%
    14:00 0°C° 0 mm 1 m/s 759 mmHg 88%
    15:00 -1°C° 0 mm 1 m/s 759 mmHg 90%
    16:00 -2°C° 0 mm 1 m/s 760 mmHg 92%
    17:00 -2°C° 0 mm 1 m/s 760 mmHg 93%
    18:00 -3°C° 0 mm 1 m/s 760 mmHg 94%
    19:00 -3°C° 0 mm 1 m/s 761 mmHg 94%
    20:00 -3°C° 0 mm 1 m/s 761 mmHg 95%
    21:00 -3°C° 0 mm 1 m/s 761 mmHg 95%
    22:00 -3°C° 0 mm 1 m/s 761 mmHg 95%
    23:00 -3°C° 0 mm 1 m/s 762 mmHg 96%

    16 Noiembrie, Vineri

    Timp Temperatura Precipitaţii Vânt Presiune Umiditate
    00:00 -5°C° 0 mm 2 m/s 762 mmHg 96%
    01:00 -5°C° 0 mm 2 m/s 762 mmHg 96%
    02:00 -5°C° 0 mm 2 m/s 762 mmHg 96%
    03:00 -5°C° 0 mm 2 m/s 762 mmHg 96%
    04:00 -5°C° 0 mm 2 m/s 762 mmHg 95%
    05:00 -4°C° 0 mm 2 m/s 762 mmHg 95%
    06:00 -4°C° 0 mm 2 m/s 762 mmHg 95%
    07:00 -4°C° 0 mm 2 m/s 762 mmHg 95%
    08:00 -5°C° 0 mm 3 m/s 762 mmHg 95%
    09:00 -4°C° 0 mm 3 m/s 762 mmHg 93%
    10:00 -2°C° 0 mm 3 m/s 763 mmHg 90%
    11:00 -1°C° 0 mm 3 m/s 763 mmHg 88%
    12:00 -1°C° 0 mm 3 m/s 762 mmHg 89%
    13:00 -1°C° 0 mm 3 m/s 762 mmHg 89%
    14:00 -1°C° 0 mm 3 m/s 762 mmHg 90%
    15:00 -1°C° 0 mm 3 m/s 762 mmHg 91%
    16:00 -1°C° 0 mm 3 m/s 762 mmHg 92%
    17:00 -1°C° 0 mm 3 m/s 762 mmHg 93%
    18:00 -1°C° 0.1 mm 3 m/s 761 mmHg 93%
    19:00 -1°C° 0.1 mm 3 m/s 761 mmHg 93%
    20:00 -1°C° 0.1 mm 3 m/s 761 mmHg 93%
    21:00 -1°C° 0.1 mm 3 m/s 761 mmHg 93%
    22:00 -1°C° 0.1 mm 3 m/s 761 mmHg 94%
    23:00 -1°C° 0.1 mm 3 m/s 761 mmHg 94%

    17 Noiembrie, Sâmbătă

    Timp Temperatura Precipitaţii Vânt Presiune Umiditate
    00:00 -1°C° 0.1 mm 3 m/s 760 mmHg 94%
    01:00 0°C° 0.1 mm 3 m/s 760 mmHg 95%
    02:00 0°C° 0.1 mm 3 m/s 760 mmHg 95%
    03:00 0°C° 0.1 mm 3 m/s 759 mmHg 95%
    04:00 0°C° 0.1 mm 3 m/s 759 mmHg 96%
    05:00 0°C° 0.1 mm 3 m/s 758 mmHg 96%
    06:00 0°C° 0 mm 3 m/s 758 mmHg 96%
    07:00 0°C° 0 mm 3 m/s 757 mmHg 96%
    08:00 0°C° 0 mm 3 m/s 757 mmHg 96%
    09:00 +1°C° 0 mm 3 m/s 756 mmHg 96%
    10:00 0°C° 0 mm 4 m/s 756 mmHg 95%
    11:00 0°C° 0 mm 4 m/s 755 mmHg 94%
    12:00 0°C° 0.1 mm 4 m/s 754 mmHg 94%
    13:00 0°C° 0.1 mm 4 m/s 753 mmHg 95%
    14:00 0°C° 0.1 mm 4 m/s 753 mmHg 95%
    15:00 0°C° 0.1 mm 4 m/s 752 mmHg 95%
    16:00 0°C° 0.1 mm 4 m/s 751 mmHg 95%
    17:00 +2°C° 0.1 mm 3 m/s 750 mmHg 96%
    18:00 +1°C° 0.1 mm 3 m/s 750 mmHg 96%
    19:00 +1°C° 0.1 mm 3 m/s 749 mmHg 96%
    20:00 +1°C° 0.1 mm 3 m/s 748 mmHg 96%
    21:00 +1°C° 0 mm 3 m/s 748 mmHg 96%
    22:00 +1°C° 0 mm 3 m/s 747 mmHg 96%
    23:00 +1°C° 0 mm 3 m/s 747 mmHg 96%

    18 Noiembrie, Duminică

    Timp Temperatura Precipitaţii Vânt Presiune Umiditate
    00:00 +1°C° 0.2 mm 3 m/s 746 mmHg 96%
    01:00 +1°C° 0.2 mm 3 m/s 746 mmHg 96%
    02:00 +1°C° 0.2 mm 3 m/s 746 mmHg 96%
    03:00 +2°C° 0.2 mm 2 m/s 746 mmHg 96%
    04:00 +1°C° 0.2 mm 2 m/s 745 mmHg 96%
    05:00 +1°C° 0.2 mm 2 m/s 745 mmHg 96%
    06:00 +1°C° 0.2 mm 2 m/s 746 mmHg 96%
    07:00 0°C° 0.2 mm 3 m/s 746 mmHg 96%
    08:00 +1°C° 0.2 mm 3 m/s 746 mmHg 95%
    09:00 +1°C° 0.1 mm 3 m/s 747 mmHg 95%
    10:00 +1°C° 0.1 mm 3 m/s 747 mmHg 94%
    11:00 0°C° 0.1 mm 4 m/s 748 mmHg 93%
    12:00 0°C° 0.1 mm 4 m/s 748 mmHg 93%
    13:00 0°C° 0.1 mm 4 m/s 749 mmHg 92%
    14:00 0°C° 0.1 mm 4 m/s 749 mmHg 92%
    15:00 0°C° 0.2 mm 4 m/s 750 mmHg 92%
    16:00 0°C° 0.2 mm 4 m/s 750 mmHg 92%
    17:00 0°C° 0.2 mm 4 m/s 751 mmHg 91%
    18:00 0°C° 0.2 mm 4 m/s 751 mmHg 91%
    19:00 0°C° 0.2 mm 4 m/s 752 mmHg 90%
    20:00 -1°C° 0.2 mm 4 m/s 752 mmHg 90%
    21:00 -1°C° 0.1 mm 4 m/s 753 mmHg 90%
    22:00 -1°C° 0.1 mm 4 m/s 754 mmHg 90%
    23:00 -1°C° 0.1 mm 4 m/s 754 mmHg 90%
    Arată mai mult